Preview of NWS' New Version of Forecast
This preview is not operational and should not be used for support decisions.

Regional Weather Roundup (RWR)

Issued by National Weather Service (NWS)

                            
000
ASCA42 TJSJ 221810
RWRPR 
PUERTO RICO/U.S. VIRGIN ISLANDS HOURLY WEATHER ROUNDUP
NATIONAL WEATHER SERVICE SAN JUAN PR
200 PM AST WED MAY 22 2019

PRZ001>002-007>008-010-221900-
PUERTO RICO
  
CITY           SKY/WX    TMP DP  RH WIND       PRES   REMARKS
SAN JUAN LMM   PTSUNNY   84  72  65 NE6       29.97F                  
AGUADILLA      MOSUNNY   84  75  74 NE7       29.99F HX  92           
$$

VIZ001>002-221900-
U.S. VIRGIN ISLANDS
  
CITY           SKY/WX    TMP DP  RH WIND       PRES   REMARKS
CHARLOTTE AMA  SUNNY     86  72  62 SE14      29.98F HX  92           
CHRISTIANSTED  MOSUNNY   86  73  66 E14       29.99F HX  93           
$$

HOURLY WEATHER ROUNDUP FOR THE NEWS MEDIA
  
CITY           SKY/WX    TMP DP  RH WIND       PRES   REMARKS
ORLANDO        FAIR      89  61  38 NE9G18    30.09S                  
NEW YORK       PTSUNNY   73  39  29 N12G20    30.22F                  
NEWARK         PTSUNNY   73  34  23 VRB5      30.20F                  
CHICAGO        FAIR      74  58  57 S18G26    29.84F                  
HARTFORD       FAIR      67  38  34 W10       30.17S                  
BOSTON         PTSUNNY   63  42  46 E17       30.17F                  
DALLAS         PTSUNNY   87  70  56 S21G29    29.77F HX  92           
PHILADELPHIA   FAIR      72  37  28 S8        30.25S                  
LOS ANGELES    MOSUNNY   64  45  49 W15       29.72S                  
WASHINGTON DC  PTSUNNY   69  43  38 S5        30.26F